Вернуться в каталог

STARLINK-30604

АктивенСвязьVLEO
NORAD 58075·PAYLOAD·🇺🇸 United States

Запущен Oct 18, 2023 с Cape Canaveral Space Force Station

Loading…

Ближайшие Пролёты (ближайшие 24 часа)

TLE

СвежийSource: CelesTrak SupGP

Эпоха: Sep 15, 2026, 03:00 UTC

1 58075C 23160A   26258.12548611 -.00019131  00000+0 -69278-3 0  2587
2 58075  42.9991  87.8954 0001433 267.8921 303.1246 15.27594383    15

Отслеживайте STARLINK-30604 в реальном времени с AllMySat

Download on the App Store